FW5225 Weather Reports


time (UTC)temp
F
wind
direction
speed
knots
gust
knots
rain 1hr
in
rain 24hr
in
rain mn
in
humidity
%
barometer
mb
20260831213511 88 55 5.2 9.6 0.00 0.00 0.00 51 1010.9
20260831213012 88 127 2.6 7.8 0.00 0.00 0.00 50 1011.0
20260831212511 88 119 1.7 7.8 0.00 0.00 0.00 50 1011.1
20260831212010 87 92 3.5 11.3 0.00 0.00 0.00 50 1011.2
20260831211511 87 55 4.3 11.3 0.00 0.00 0.00 50 1011.3
20260831211009 88 60 1.7 8.7 0.00 0.00 0.00 50 1011.3
20260831210509 88 140 3.5 8.7 0.00 0.00 0.00 48 1011.4
20260831210009 88 188 1.7 8.7 0.00 0.00 0.00 48 1011.5
20260831205509 88 128 4.3 7.8 0.00 0.00 0.00 49 1011.6
20260831205009 88 134 2.6 7.8 0.00 0.00 0.00 49 1011.7
20260831204510 88 48 0.9 11.3 0.00 0.00 0.00 49 1011.8
20260831204009 88 136 4.3 11.3 0.00 0.00 0.00 49 1011.8
20260831203509 88 180 2.6 9.6 0.00 0.00 0.00 48 1011.8
20260831203009 89 111 1.7 7.8 0.00 0.00 0.00 49 1011.8
20260831202508 88 125 2.6 7.8 0.00 0.00 0.00 49 1011.8
20260831202006 87 172 0.9 7.8 0.00 0.00 0.00 50 1011.8
20260831201506 87 53 1.7 7.8 0.00 0.00 0.00 51 1011.8
20260831201006 87 125 2.6 7.8 0.00 0.00 0.00 50 1012.0
20260831200506 87 151 4.3 7.8 0.00 0.00 0.00 49 1012.0
20260831200005 87 69 4.3 9.6 0.00 0.00 0.00 49 1012.0
20260831195506 87 107 2.6 9.6 0.00 0.00 0.00 49 1012.1
20260831195006 87 100 1.7 8.7 0.00 0.00 0.00 48 1012.1
20260831194504 86 92 3.5 7.0 0.00 0.00 0.00 48 1012.1
20260831194006 86 96 2.6 10.4 0.00 0.00 0.00 48 1012.2
20260831193504 86 142 3.5 11.3 0.00 0.00 0.00 48 1012.2
20260831193004 86 113 1.7 6.1 0.00 0.00 0.00 49 1012.2
20260831192504 85 126 0.9 10.4 0.00 0.00 0.00 51 1012.3
20260831192004 85 114 2.6 8.7 0.00 0.00 0.00 53 1012.3
20260831191502 85 157 3.5 8.7 0.00 0.00 0.00 54 1012.4
20260831191002 84 90 2.6 8.7 0.00 0.00 0.00 55 1012.5
20260831190502 84 103 2.6 8.7 0.00 0.00 0.00 56 1012.6
20260831190004 84 103 2.6 8.7 0.00 0.00 0.00 55 1012.5
20260831185504 84 182 1.7 7.8 0.00 0.00 0.00 55 1012.5
20260831185002 83 212 1.7 6.1 0.00 0.00 0.00 55 1012.7
20260831184611 83 134 2.6 7.0 0.00 0.00 0.00 56 1012.7
20260831184100 83 126 0.9 8.7 0.00 0.00 0.00 58 1012.6
20260831183600 83 122 3.5 9.6 0.00 0.00 0.00 56 1012.7
20260831183101 83 119 1.7 7.0 0.00 0.00 0.00 54 1012.6
20260831182601 83 138 0.9 7.0 0.00 0.00 0.00 56 1012.7
20260831182100 83 87 0.9 7.0 0.00 0.00 0.00 56 1012.7
20260831181602 83 107 2.6 9.6 0.00 0.00 0.00 55 1012.7
20260831181059 83 82 2.6 5.2 0.00 0.00 0.00 57 1012.7
20260831180659 83 155 1.7 6.1 0.00 0.00 0.00 57 1012.8
20260831180059 83 143 2.6 7.0 0.00 0.00 0.00 56 1012.9
20260831175600 82 66 1.7 9.6 0.00 0.00 0.00 57 1013.0
20260831175058 82 75 4.3 9.6 0.00 0.00 0.00 58 1013.0
20260831174626 82 110 1.7 7.0 0.00 0.00 0.00 59 1013.0
20260831174057 81 61 0.9 8.7 0.00 0.00 0.00 60 1013.0
20260831173556 81 67 4.3 8.7 0.00 0.00 0.00 61 1013.1
20260831173055 81 70 3.5 7.8 0.00 0.00 0.00 61 1013.1
20260831172554 80 76 3.5 8.7 0.00 0.00 0.00 61 1013.1
20260831172053 80 97 5.2 7.8 0.00 0.00 0.00 61 1013.1
20260831171552 80 67 2.6 9.6 0.00 0.00 0.00 60 1013.1
20260831171052 80 87 4.3 11.3 0.00 0.00 0.00 60 1013.1
20260831170552 80 55 3.5 11.3 0.00 0.00 0.00 61 1013.1
20260831170056 80 65 3.5 8.7 0.00 0.00 0.00 60 1013.0
20260831165555 79 82 3.5 8.7 0.00 0.00 0.00 60 1013.0
20260831165054 79 76 2.6 9.6 0.00 0.00 0.00 61 1013.0
20260831164555 79 36 6.1 9.6 0.00 0.00 0.00 65 1013.0
20260831164050 79 82 5.2 9.6 0.00 0.00 0.00 65 1012.9
20260831163549 79 45 5.2 9.6 0.00 0.00 0.00 67 1013.0
20260831163048 79 62 3.5 8.7 0.00 0.00 0.00 67 1012.8
20260831162547 79 98 2.6 11.3 0.00 0.00 0.00 68 1012.7
20260831162045 79 88 6.1 11.3 0.00 0.00 0.00 68 1012.7
20260831161544 79 90 5.2 10.4 0.00 0.00 0.00 68 1012.8
20260831161043 79 42 2.6 10.4 0.00 0.00 0.00 68 1012.6
20260831160542 79 55 4.3 10.4 0.00 0.00 0.00 68 1012.4
20260831160043 79 59 3.5 9.6 0.00 0.00 0.00 68 1012.4
20260831155541 79 86 0.9 6.1 0.00 0.00 0.00 69 1012.4
20260831155041 79 50 0.0 5.2 0.00 0.00 0.00 69 1012.4
20260831154544 79 85 1.7 7.0 0.00 0.00 0.00 69 1012.2
20260831154039 79 78 0.9 7.0 0.00 0.00 0.00 69 1012.3
20260831153541 79 107 0.9 6.1 0.00 0.00 0.00 68 1012.2
20260831153050 79 86 1.7 9.6 0.00 0.00 0.00 68 1012.3
20260831152539 79 156 3.5 9.6 0.00 0.00 0.00 67 1012.3
20260831152037 79 165 2.6 10.4 0.00 0.00 0.00 67 1012.3
20260831151544 79 98 3.5 8.7 0.00 0.00 0.00 66 1012.2
20260831151037 80 88 4.3 8.7 0.00 0.00 0.00 65 1012.1
20260831150537 80 190 0.9 8.7 0.00 0.00 0.00 64 1012.1
20260831150033 80 123 3.5 8.7 0.00 0.00 0.00 64 1012.0
20260831145533 80 120 0.0 8.7 0.00 0.00 0.00 64 1011.9
20260831145032 80 136 1.7 8.7 0.00 0.00 0.00 63 1011.8
20260831144528 80 117 0.9 7.8 0.00 0.00 0.00 63 1011.5
20260831144028 80 135 0.9 7.8 0.00 0.00 0.00 63 1011.4
20260831143529 80 114 0.9 8.7 0.00 0.00 0.00 63 1011.3
20260831143024 81 86 0.9 7.8 0.00 0.00 0.00 62 1011.3
20260831142524 81 136 2.6 8.7 0.00 0.00 0.00 61 1011.1
20260831142024 81 150 3.5 8.7 0.00 0.00 0.00 59 1011.0
20260831141522 81 80 1.7 6.1 0.00 0.00 0.00 59 1010.8
20260831141020 81 42 0.9 4.3 0.00 0.00 0.00 59 1010.7
20260831140522 81 56 0.0 3.5 0.00 0.00 0.00 59 1010.5
20260831140017 81 75 0.9 4.3 0.00 0.00 0.00 59 1010.4
20260831135516 80 47 0.9 4.3 0.00 0.00 0.00 59 1010.2
20260831135015 80 57 0.9 2.6 0.00 0.00 0.00 58 1010.0
20260831134518 80 72 0.0 2.6 0.00 0.00 0.00 58 1009.9
20260831134013 80 51 0.0 1.7 0.00 0.00 0.00 58 1009.8
20260831133512 80 79 0.0 0.9 0.00 0.00 0.00 57 1009.7
20260831133014 80 79 0.0 1.7 0.00 0.00 0.00 57 1009.6
20260831132511 81 34 0.0 0.0 0.00 0.00 0.00 58 1009.4
20260831132010 81 34 0.0 1.7 0.00 0.00 0.00 58 1009.4
20260831131509 81 33 0.0 1.7 0.00 0.00 0.00 57 1009.3
20260831131011 81 147 0.0 1.7 0.00 0.00 0.00 56 1009.3
20260831130508 81 105 0.0 1.7 0.00 0.00 0.00 56 1009.3
20260831130009 81 63 0.0 0.0 0.00 0.00 0.00 58 1009.1
20260831125507 81 115 0.0 0.9 0.00 0.00 0.00 56 1009.1
20260831125007 81 115 0.0 1.7 0.00 0.00 0.00 56 1009.2
20260831124507 81 95 0.0 0.9 0.00 0.00 0.00 55 1009.1
20260831124005 81 78 0.0 1.7 0.00 0.00 0.00 55 1009.0
20260831123508 81 106 0.0 1.7 0.00 0.00 0.00 55 1009.0
20260831123007 81 143 0.0 1.7 0.00 0.00 0.00 54 1009.0
20260831122505 81 146 0.0 1.7 0.00 0.00 0.00 53 1008.9
20260831122005 81 175 0.0 2.6 0.00 0.00 0.00 52 1008.9
20260831121505 81 57 0.0 2.6 0.00 0.00 0.00 52 1009.0
20260831121003 81 56 0.0 2.6 0.00 0.00 0.00 51 1008.8
20260831120503 81 130 0.0 1.7 0.00 0.00 0.00 50 1008.9
20260831120002 81 51 0.0 2.6 0.00 0.00 0.00 51 1008.7
20260831115501 81 355 0.0 4.3 0.00 0.00 0.00 51 1008.5
20260831115000 81 355 0.9 4.3 0.00 0.00 0.00 51 1008.4
20260831114603 81 5 0.0 5.2 0.00 0.00 0.00 51 1008.4
20260831114100 81 57 2.6 5.2 0.00 0.00 0.00 50 1008.4
20260831113600 81 28 0.9 6.1 0.00 0.00 0.00 50 1008.4
20260831113108 81 15 0.9 6.1 0.00 0.00 0.00 51 1008.3
20260831113001 81 55 0.9 6.1 0.00 0.00 0.00 51 1008.3
20260831112559 81 338 1.7 6.1 0.00 0.00 0.00 51 1008.3
20260831112058 81 31 2.6 6.1 0.00 0.00 0.00 51 1008.1
20260831111557 80 42 0.9 6.1 0.00 0.00 0.00 52 1008.0
20260831111058 80 40 1.7 5.2 0.00 0.00 0.00 53 1008.0
20260831110557 80 46 2.6 5.2 0.00 0.00 0.00 54 1008.0
20260831110058 80 27 0.9 5.2 0.00 0.00 0.00 54 1007.9
20260831105559 80 348 1.7 6.1 0.00 0.00 0.00 55 1007.9
20260831105127 80 52 3.5 6.1 0.00 0.00 0.00 55 1007.8
20260831104600 80 5 2.6 5.2 0.00 0.00 0.00 55 1007.8
20260831104057 80 42 1.7 7.8 0.00 0.00 0.00 56 1007.9
20260831103557 80 42 2.6 7.8 0.00 0.00 0.00 57 1007.8
20260831103100 79 344 1.7 5.2 0.00 0.00 0.00 57 1007.7
20260831102556 79 19 1.7 5.2 0.00 0.00 0.00 57 1007.8
20260831102056 79 36 0.9 5.2 0.00 0.00 0.00 60 1007.8
20260831101555 79 5 2.6 5.2 0.00 0.00 0.00 60 1007.8
20260831101055 79 41 3.5 6.1 0.00 0.00 0.00 59 1007.8
20260831100554 79 49 3.5 6.1 0.00 0.00 0.00 59 1008.0
20260831100054 79 19 2.6 5.2 0.00 0.00 0.00 59 1008.1
20260831095553 80 19 1.7 5.2 0.00 0.00 0.00 59 1008.1
20260831095052 80 64 2.6 6.1 0.00 0.00 0.00 59 1008.1
20260831094602 80 57 1.7 6.1 0.00 0.00 0.00 59 1008.0
20260831094051 80 76 2.6 6.1 0.00 0.00 0.00 58 1008.1
20260831093550 81 92 0.9 5.2 0.00 0.00 0.00 57 1008.0
20260831093136 81 87 0.0 5.2 0.00 0.00 0.00 56 1008.0
20260831092548 81 105 1.7 6.1 0.00 0.00 0.00 55 1007.9
20260831092047 81 58 2.6 6.1 0.00 0.00 0.00 55 1007.8
20260831091550 81 65 1.7 6.1 0.00 0.00 0.00 54 1007.8
20260831091045 82 46 1.7 8.7 0.00 0.00 0.00 53 1007.8
20260831090544 82 59 1.7 8.7 0.00 0.00 0.00 53 1007.8
20260831090043 83 55 4.3 9.6 0.00 0.00 0.00 51 1007.7
20260831085541 83 45 4.3 10.4 0.00 0.00 0.00 48 1007.5
20260831085040 84 80 5.2 12.2 0.00 0.00 0.00 47 1007.4
20260831084625 84 69 7.8 14.8 0.00 0.00 0.00 45 1007.2
20260831084037 85 30 8.7 16.5 0.00 0.00 0.00 44 1007.1
20260831083537 85 28 8.7 16.5 0.00 0.00 0.00 43 1007.1
20260831083045 86 88 7.0 13.0 0.00 0.00 0.00 41 1006.9
20260831082537 87 40 9.6 13.0 0.00 0.00 0.00 40 1006.9
20260831082037 86 57 7.0 13.0 0.00 0.00 0.00 40 1006.8
20260831081537 86 26 5.2 12.2 0.00 0.00 0.00 41 1006.8
20260831081037 87 56 8.7 12.2 0.00 0.00 0.00 41 1006.8
20260831080535 87 40 7.0 14.8 0.00 0.00 0.00 41 1006.8
20260831080043 87 53 6.1 14.8 0.00 0.00 0.00 41 1006.9
20260831075535 86 35 6.1 15.6 0.00 0.00 0.00 41 1007.0
20260831075033 86 360 9.6 18.2 0.00 0.00 0.00 42 1007.1
20260831074543 86 40 9.6 16.5 0.00 0.00 0.00 43 1007.1
20260831074032 86 27 7.8 18.2 0.00 0.00 0.00 45 1007.2
20260831073531 85 63 8.7 18.2 0.00 0.00 0.00 45 1007.2
20260831073031 85 5 12.2 17.4 0.00 0.00 0.00 46 1007.2
20260831072529 85 5 9.6 19.1 0.00 0.00 0.00 47 1007.1
20260831072028 85 29 9.6 19.1 0.00 0.00 0.00 48 1007.2
20260831071536 85 24 9.6 16.5 0.00 0.00 0.00 48 1007.3
20260831071027 85 31 7.8 16.5 0.00 0.00 0.00 47 1007.3
20260831070525 86 59 8.7 14.8 0.00 0.00 0.00 47 1007.3
20260831070029 86 333 7.0 13.0 0.00 0.00 0.00 47 1007.2
20260831065526 86 360 6.1 15.6 0.00 0.00 0.00 46 1007.4
20260831065025 87 337 6.1 16.5 0.00 0.00 0.00 45 1007.5
20260831064527 87 355 9.6 16.5 0.00 0.00 0.00 46 1007.3
20260831064024 86 5 9.6 14.8 0.00 0.00 0.00 44 1007.4
20260831063523 86 360 7.0 16.5 0.00 0.00 0.00 46 1007.4
20260831063023 85 328 9.6 16.5 0.00 0.00 0.00 48 1007.5
20260831062524 84 325 8.7 16.5 0.00 0.00 0.00 51 1007.6
20260831062022 83 333 9.6 16.5 0.00 0.00 0.00 53 1007.7
20260831061521 83 5 7.0 16.5 0.00 0.00 0.00 55 1007.8
20260831061021 84 348 6.1 13.0 0.00 0.00 0.00 57 1007.9
20260831060518 85 13 5.2 10.4 0.00 0.00 0.00 54 1007.8
20260831060018 86 350 6.1 10.4 0.00 0.00 0.00 52 1008.0
20260831055518 86 338 4.3 10.4 0.00 0.00 0.00 50 1008.2
20260831055018 86 343 3.5 10.4 0.00 0.00 0.00 50 1008.4
20260831054521 86 326 1.7 7.0 0.00 0.00 0.00 50 1008.6
20260831054018 85 344 4.3 10.4 0.00 0.00 0.00 50 1008.7
20260831053519 85 17 4.3 11.3 0.00 0.00 0.00 51 1008.7
20260831053018 85 349 4.3 11.3 0.00 0.00 0.00 52 1008.8
20260831052517 85 325 5.2 12.2 0.00 0.00 0.00 52 1008.8
20260831052017 84 341 7.0 12.2 0.00 0.00 0.00 52 1008.6
20260831051526 84 327 6.1 9.6 0.00 0.00 0.00 54 1008.4
20260831051015 86 334 2.6 7.0 0.00 0.00 0.00 52 1008.4
20260831050520 87 51 0.0 9.6 0.00 0.00 0.00 51 1008.5
20260831050015 88 72 1.7 8.7 0.00 0.00 0.00 47 1008.3
20260831045518 89 207 0.9 11.3 0.00 0.00 0.00 45 1008.0
20260831045014 89 213 1.7 11.3 0.00 0.00 0.00 42 1007.6
20260831044517 90 218 3.5 11.3 0.00 0.00 0.00 43 1007.4
20260831044014 90 229 3.5 8.7 0.00 0.00 0.00 44 1007.0
20260831043514 90 233 0.9 9.6 0.00 0.00 0.00 43 1006.7
20260831043014 91 254 2.6 13.9 0.00 0.00 0.00 42 1006.7
20260831042514 92 203 2.6 13.9 0.00 0.00 0.00 41 1006.7
20260831042014 93 209 1.7 13.0 0.00 0.00 0.00 40 1006.7
20260831041516 93 204 2.6 8.7 0.00 0.00 0.00 39 1006.7
20260831041013 94 221 3.5 9.6 0.00 0.00 0.00 39 1006.2
20260831040515 94 153 3.5 9.6 0.00 0.00 0.00 38 1006.1
20260831040021 95 196 3.5 13.9 0.00 0.00 0.00 37 1006.0
20260831035512 97 259 5.2 13.9 0.00 0.00 0.00 36 1005.8
20260831035012 98 225 2.6 6.1 0.00 0.00 0.00 33 1005.6
20260831034512 98 211 0.9 4.3 0.00 0.00 0.00 33 1005.0
20260831034012 98 205 0.0 4.3 0.00 0.00 0.00 33 1004.8
20260831033512 98 273 0.9 4.3 0.00 0.00 0.00 33 1004.8
20260831033012 98 268 0.9 7.0 0.00 0.00 0.00 33 1004.8
20260831032512 98 187 0.0 7.0 0.00 0.00 0.00 33 1004.8
20260831032011 99 310 0.0 2.6 0.00 0.00 0.00 33 1005.0
20260831031511 99 194 0.9 3.5 0.00 0.00 0.00 33 1005.1
20260831031010 99 250 0.0 3.5 0.00 0.00 0.00 32 1005.1
20260831030511 99 228 0.0 2.6 0.00 0.00 0.00 32 1005.0
20260831030010 99 234 0.0 2.6 0.00 0.00 0.00 32 1004.9
20260831025511 99 238 0.0 2.6 0.00 0.00 0.00 32 1004.6
20260831025011 99 243 0.0 3.5 0.00 0.00 0.00 32 1004.5
20260831024510 99 224 0.9 2.6 0.00 0.00 0.00 31 1004.4
20260831024010 99 244 0.0 4.3 0.00 0.00 0.00 31 1004.4
20260831023512 99 230 0.9 4.3 0.00 0.00 0.00 30 1004.4
20260831023009 99 201 0.0 3.5 0.00 0.00 0.00 30 1004.3
20260831022509 100 196 0.0 3.5 0.00 0.00 0.00 30 1004.3
20260831022009 100 197 0.0 2.6 0.00 0.00 0.00 30 1004.2
20260831021509 100 197 0.0 4.3 0.00 0.00 0.00 29 1004.1
20260831021009 100 239 1.7 4.3 0.00 0.00 0.00 29 1004.0
20260831020510 100 234 0.9 5.2 0.00 0.00 0.00 29 1003.9
20260831020009 100 257 0.9 5.2 0.00 0.00 0.00 29 1003.9
20260831015508 100 219 0.0 5.2 0.00 0.00 0.00 29 1003.8
20260831015008 101 223 1.7 5.2 0.00 0.00 0.00 28 1003.7
20260831014508 101 290 0.0 4.3 0.00 0.00 0.00 28 1003.6
20260831014008 101 279 0.9 4.3 0.00 0.00 0.00 29 1003.6
20260831013508 102 167 0.9 3.5 0.00 0.00 0.00 28 1003.6
20260831013009 102 240 0.0 3.5 0.00 0.00 0.00 28 1003.5
20260831012508 102 198 0.9 3.5 0.00 0.00 0.00 28 1003.4
20260831012006 102 254 0.9 5.2 0.00 0.00 0.00 28 1003.4
20260831011514 103 213 1.7 5.2 0.00 0.00 0.00 27 1003.5
20260831011005 103 196 1.7 7.8 0.00 0.00 0.00 27 1003.6
20260831010505 103 255 2.6 7.8 0.00 0.00 0.00 27 1003.6
20260831010005 103 193 0.0 5.2 0.00 0.00 0.00 27 1003.6
20260831005504 103 184 0.9 5.2 0.00 0.00 0.00 27 1003.7
20260831005004 103 202 1.7 4.3 0.00 0.00 0.00 27 1003.7
20260831004504 104 236 0.9 6.1 0.00 0.00 0.00 28 1003.8
20260831004002 104 315 1.7 6.1 0.00 0.00 0.00 27 1003.8
20260831003502 104 313 1.7 6.1 0.00 0.00 0.00 28 1003.7
20260831003003 105 212 0.9 4.3 0.00 0.00 0.00 28 1003.8
20260831002502 104 184 0.0 3.5 0.00 0.00 0.00 28 1003.8
20260831002003 104 186 0.9 5.2 0.00 0.00 0.00 28 1003.8
20260831001504 104 171 0.9 6.1 0.00 0.00 0.00 28 1003.8
20260831001001 104 186 1.7 6.1 0.00 0.00 0.00 29 1003.9
20260831000501 104 286 1.7 7.8 0.00 0.00 0.00 28 1003.9
20260830235559 104 245 1.7 4.3 0.00 0.00 0.00 29 1004.0
20260830235103 104 248 0.9 7.0 0.00 0.00 0.00 29 1004.1
20260830234559 104 321 2.6 8.7 0.00 0.00 0.00 29 1004.1
20260830234059 104 244 4.3 8.7 0.00 0.00 0.00 28 1004.1
20260830233559 105 304 2.6 7.8 0.00 0.00 0.00 28 1004.1
20260830233121 105 273 1.7 7.0 0.00 0.00 0.00 27 1004.2
20260830232558 105 225 1.7 6.1 0.00 0.00 0.00 27 1004.2
20260830232058 106 231 1.7 6.1 0.00 0.00 0.00 27 1004.3
20260830231556 106 190 0.9 3.5 0.00 0.00 0.00 27 1004.3
20260830231101 106 288 0.0 3.5 0.00 0.00 0.00 27 1004.4
20260830230559 105 180 0.9 4.3 0.00 0.00 0.00 27 1004.6
20260830230104 105 193 0.9 6.1 0.00 0.00 0.00 28 1004.6
20260830225555 105 287 1.7 6.1 0.00 0.00 0.00 27 1004.6
20260830225053 105 270 1.7 6.1 0.00 0.00 0.00 27 1004.7
20260830224555 105 290 1.7 6.1 0.00 0.00 0.00 27 1004.8
20260830224050 105 125 1.7 7.0 0.00 0.00 0.00 27 1004.9
20260830223550 104 157 1.7 7.0 0.00 0.00 0.00 28 1005.0
20260830223049 104 244 2.6 7.0 0.00 0.00 0.00 28 1005.2
20260830222549 104 282 3.5 7.0 0.00 0.00 0.00 28 1005.2
20260830222048 105 227 2.6 6.1 0.00 0.00 0.00 28 1005.4
20260830221547 104 190 1.7 7.0 0.00 0.00 0.00 28 1005.4
20260830221048 104 259 0.9 7.8 0.00 0.00 0.00 29 1005.5
20260830220546 104 281 2.6 7.8 0.00 0.00 0.00 28 1005.6
20260830220045 104 275 0.0 7.8 0.00 0.00 0.00 28 1005.7
20260830215543 104 297 1.7 7.8 0.00 0.00 0.00 28 1005.8
20260830215046 104 214 3.5 7.8 0.00 0.00 0.00 28 1005.9
20260830214543 104 231 2.6 7.0 0.00 0.00 0.00 29 1006.0
20260830214043 103 66 0.9 4.3 0.00 0.00 0.00 30 1006.0